Location: Dulzura
(32.6442°N, 116.7814°W)
Time: 13:23:45
(UTC+00:00)

Cosmos 1328 Rocket - Pass Details

Date: 07 December 2021
Orbit: 600 x 627 km, 82.5° (Epoch: 19 January)

Event Time Altitude Azimuth Distance (km) Brightness Sun altitude
Exits shadow 12:47:50 16° 3° (N) 1,609 5.6 -22.3°
Maximum altitude 12:51:14 65° 82° (E) 669 3.8 -21.6°
Drops below altitude 10° 12:55:30 10° 165° (SSE) 1,943 6.5 -20.7°
Sets 12:57:43 0° 168° (SSE) 2,838 7.3 -20.3°
